Weather History for CYTH - February, 2012

Change the Weather History Date:

Thursday, February 9, 2012

  Actual Average Record
Temperature  
Mean Temperature -13 °F -  
Max Temperature -5 °F 11 °F 30 °F (2009)
Min Temperature -21 °F -9 °F -32 °F (2001)
Degree Days  
Heating Degree Days 78    
Moisture  
Dew Point -24 °F    
Average Humidity 57    
Maximum Humidity 70    
Minimum Humidity 36    
Precipitation  
Precipitation 0.00 in 0.02 in - ()
Sea Level Pressure  
Sea Level Pressure 30.32 in    
Wind  
Wind Speed 9 mph ()    
Max Wind Speed 20 mph    
Max Gust Speed 23 mph    
Visibility 14.2 miles    
Events Snow    
Averages and records for this station are not official NWS values.
T = Trace of Precipitation, MM = Missing Value Source: Averaged Metar Reports

Daily Weather History Graph

Daily Weather History Graph

Search for Another Location

Airport or City:

Trip Planner

Search our weather history database for the weather conditions in past years. The results will help you decide how hot, cold, wet, or windy it might be!

Date:

Astronomy

Feb. 09, 2012 Rise Set
Actual Time 8:10 AM CST 5:21 PM CST
Civil Twilight 7:30 AM CST 6:01 PM CST
Nautical Twilight 6:46 AM CST 6:45 PM CST
Astronomical Twilight 6:04 AM CST 7:28 PM CST
Moon 8:31 PM CST (2/9) 8:14 AM CST (2/9)
Length of Visible Light 10h 30m
Length of Day
9h 11m
Waning Gibbous, 96% of the Moon is Illuminated
Feb 9
Waning Gibbous
Feb 14
Last Quarter
Feb 21
New
Feb 29
First Quarter
Mar 8
Full

Hourly Weather History & Observations

Time (CST) Temp. Windchill Dew Point Humidity Pressure Visibility Wind Dir Wind Speed Gust Speed Precip Events Conditions
12:00 AM -11 °F - -19 °F 51% 30.09 in 15 mi NW 5.8 mph - -  
12:00 AM -11.2 °F -24.8 °F -18.4 °F 70% 30.09 in 15.0 mi NW 5.8 mph - N/A   Clear
1:00 AM -18.4 °F -35.1 °F -25.6 °F 70% 30.09 in 15.0 mi NW 6.9 mph - N/A   Clear
2:00 AM -13.0 °F -31.3 °F -20.2 °F 70% 30.09 in 15.0 mi NW 9.2 mph - N/A   Clear
3:00 AM -13.0 °F -30.0 °F -22.0 °F 64% 30.09 in 15.0 mi NW 8.1 mph - N/A   Clear
4:00 AM -13.0 °F -27.0 °F -22.0 °F 64% 30.10 in 15.0 mi NW 5.8 mph - N/A   Clear
5:00 AM -13.0 °F -32.4 °F -20.2 °F 70% 30.12 in 15.0 mi NW 10.4 mph - N/A Snow Light Snow
5:41 AM - - - N/A% - 15.0 mi NW 11.5 mph - N/A   Scattered Clouds
6:00 AM -14 °F - -23 °F 48% 30.13 in 15 mi NW 12.7 mph - - Snow Light Snow
7:00 AM -14.8 °F -35.6 °F -23.8 °F 64% 30.16 in 15.0 mi NNW 11.5 mph - N/A   Partly Cloudy
8:00 AM -16.6 °F -38.9 °F -25.6 °F 64% 30.19 in 15.0 mi NNW 12.7 mph - N/A   Partly Cloudy
9:00 AM -16.6 °F -37.9 °F -27.4 °F 58% 30.22 in 15.0 mi NNW 11.5 mph - N/A   Scattered Clouds
10:00 AM -14.8 °F -36.6 °F -25.6 °F 58% 30.25 in 15.0 mi NNW 12.7 mph - N/A   Scattered Clouds
10:36 AM - - - N/A% - 12.0 mi North 16.1 mph 23.0 mph N/A   Unknown
11:00 AM -14.8 °F -41.2 °F -25.6 °F 58% 30.29 in 12.0 mi NNW 19.6 mph - N/A Snow Light Snow
12:00 PM -14 °F - -25 °F 40% 30.34 in 7 mi NNW 13.8 mph - - Snow Light Snow
12:00 PM -13.0 °F -33.4 °F -25.6 °F 53% 30.34 in 8.0 mi NNW 11.5 mph 17.3 mph N/A Snow Light Snow
1:00 PM -13.0 °F -35.2 °F -23.8 °F 59% 30.38 in 12.0 mi North 13.8 mph - N/A Snow Low Drifting Snow
2:00 PM -11.2 °F -34.4 °F -23.8 °F 54% 30.40 in 15.0 mi NNW 16.1 mph - N/A Snow Low Drifting Snow
3:00 PM -9.4 °F -32.1 °F -23.8 °F 49% 30.43 in 15.0 mi NNW 16.1 mph - N/A Snow Low Drifting Snow
4:00 PM -5.8 °F -26.0 °F -23.8 °F 42% 30.46 in 15.0 mi NNW 13.8 mph 19.6 mph N/A Snow Low Drifting Snow
5:00 PM -11.2 °F -32.1 °F -23.8 °F 54% 30.50 in 15.0 mi NNW 12.7 mph - N/A Snow Low Drifting Snow
6:00 PM -13 °F - -25 °F 36% 30.52 in 15 mi NW 11.5 mph - - Snow Low Drifting Snow
6:00 PM -13.0 °F -33.4 °F -25.6 °F 53% 30.52 in 15.0 mi NW 11.5 mph - N/A Snow Low Drifting Snow
7:00 PM -14.8 °F -30.8 °F -25.6 °F 58% 30.55 in 15.0 mi WNW 6.9 mph - N/A Snow Low Drifting Snow
8:00 PM -14.8 °F -30.8 °F -25.6 °F 58% 30.57 in 15.0 mi WNW 6.9 mph - N/A   Clear
9:00 PM -14.8 °F -35.6 °F -25.6 °F 58% 30.58 in 15.0 mi NW 11.5 mph 17.3 mph N/A   Clear
10:00 PM -14.8 °F -33.5 °F -25.6 °F 58% 30.59 in 15.0 mi WNW 9.2 mph - N/A   Clear
11:00 PM -16.6 °F -34.4 °F -27.4 °F 58% 30.60 in 15.0 mi WNW 8.1 mph - N/A   Clear